Weather History for Poplar Bluff, MO

Change the Weather History Date:

Saturday, March 16, 2013

  Actual Average Record
Temperature  
Mean Temperature 60 °F -  
Max Temperature 75 °F 59 °F 85 °F (1977)
Min Temperature 46 °F 35 °F 20 °F (1937)
Degree Days  
Heating Degree Days 6    
Growing Degree Days 10 (Base 50)    
Moisture  
Dew Point 46 °F    
Average Humidity 62    
Maximum Humidity 75    
Minimum Humidity 40    
Precipitation  
Precipitation 0.00 in - - ()
Sea Level Pressure  
Sea Level Pressure 29.84 in    
Wind  
Wind Speed 11 mph (NNE)    
Max Wind Speed 18 mph    
Max Gust Speed 25 mph    
Visibility 9 miles    
Events      
Averages and records for this station are not official NWS values.
T = Trace of Precipitation, MM = Missing Value Source: NWS Daily Summary

Daily Weather History Graph

Daily Weather History Graph

Search for Another Location

Airport:

Trip Planner

Search our weather history database for the weather conditions in past years. The results will help you decide how hot, cold, wet, or windy it might be!

Date:

Astronomy

Mar. 16, 2013 Rise Set
Actual Time 7:10 AM CDT 7:09 PM CDT
Civil Twilight 6:44 AM CDT 7:35 PM CDT
Nautical Twilight 6:14 AM CDT 8:05 PM CDT
Astronomical Twilight 5:44 AM CDT 8:36 PM CDT
Moon 9:47 AM CDT (3/16) No Moon Set
Length of Visible Light 12h 51m
Length of Day
11h 59m
Waxing Crescent, 23% of the Moon is Illuminated
Mar 16
Waxing Crescent
Mar 19
First Quarter
Mar 27
Full
Apr 2
Last Quarter
Apr 10
New

Hourly Weather History & Observations

Time (CDT) Temp. Windchill Dew Point Humidity Pressure Visibility Wind Dir Wind Speed Gust Speed Precip Events Conditions
12:53 AM 63.0 °F - 50.0 °F 63% 29.76 in 10.0 mi SSW 11.5 mph - N/A   Clear
1:53 AM 62.1 °F - 48.9 °F 62% 29.76 in 10.0 mi SSW 9.2 mph - N/A   Clear
2:53 AM 61.0 °F - 48.9 °F 64% 29.76 in 10.0 mi SW 10.4 mph - N/A   Clear
3:53 AM 60.1 °F - 48.0 °F 64% 29.74 in 10.0 mi SW 10.4 mph - N/A   Clear
4:53 AM 57.9 °F - 48.0 °F 70% 29.74 in 10.0 mi SSW 11.5 mph - N/A   Clear
5:53 AM 57.0 °F - 48.0 °F 72% 29.75 in 10.0 mi SW 9.2 mph - N/A   Clear
6:53 AM 55.9 °F - 46.9 °F 72% 29.78 in 10.0 mi SW 6.9 mph - N/A   Clear
7:53 AM 55.9 °F - 48.0 °F 75% 29.79 in 10.0 mi SW 9.2 mph - N/A   Clear
8:53 AM 59.0 °F - 48.9 °F 69% 29.81 in 10.0 mi SW 10.4 mph - N/A   Clear
9:53 AM 62.1 °F - 50.0 °F 65% 29.82 in 10.0 mi SW 10.4 mph - N/A   Clear
10:53 AM 64.9 °F - 51.1 °F 61% 29.82 in 10.0 mi SW 11.5 mph - N/A   Clear
11:53 AM 71.1 °F - 48.0 °F 44% 29.83 in 10.0 mi WNW 6.9 mph - N/A   Clear
12:53 PM 73.9 °F - 48.0 °F 40% 29.83 in 10.0 mi North 5.8 mph - N/A   Clear
1:53 PM 72.0 °F - 51.1 °F 48% 29.84 in 10.0 mi NE 15.0 mph 23.0 mph N/A   Clear
2:53 PM 69.1 °F - 48.9 °F 49% 29.85 in 10.0 mi NE 17.3 mph 23.0 mph N/A   Clear
3:53 PM 64.0 °F - 46.0 °F 52% 29.85 in 10.0 mi ENE 17.3 mph 24.2 mph N/A   Clear
4:53 PM 59.0 °F - 44.1 °F 58% 29.86 in 6.0 mi NE 18.4 mph 25.3 mph N/A   Haze
5:53 PM 55.9 °F - 41.0 °F 57% 29.89 in 7.0 mi NNE 16.1 mph 21.9 mph N/A   Mostly Cloudy
6:53 PM 52.0 °F - 39.0 °F 61% 29.91 in 7.0 mi NE 15.0 mph 23.0 mph N/A   Overcast
7:53 PM 50.0 °F - 39.0 °F 66% 29.93 in 8.0 mi NE 15.0 mph - N/A   Overcast
8:53 PM 48.9 °F - 39.0 °F 69% 29.95 in 8.0 mi NE 15.0 mph - N/A   Mostly Cloudy
9:53 PM 48.0 °F - 37.9 °F 68% 29.95 in 7.0 mi NE 15.0 mph - N/A   Clear
10:53 PM 46.0 °F 40.6 °F 37.9 °F 73% 29.96 in 7.0 mi NE 11.5 mph - N/A   Clear
11:53 PM 46.0 °F 41.0 °F 37.9 °F 73% 29.96 in 7.0 mi NE 10.4 mph 21.9 mph N/A   Overcast